Flag for Kenya Weather past 2 weeks in Nairobi, Kenya

Now
64 °F

Passing clouds.


Feels Like: 64 °F
Forecast: 59 / 85 °F
Wind: 6 mph from Northeast

Location: Nairobi / Wilson

Current Time: Feb 2, 2015 at 5:34:55 AM

Latest Report: Feb 2, 2015 at 5:00 AM


Visibility: N/A

Pressure: 30.09 "Hg

Humidity: 78%

Dew point: 57 °F

Location of NairobiLocation

Historic Weather in Nairobi — Graph

°F

Nairobi temperature yesterday

Maximum temperature yesterday: 84 °F (at 3:00 PM)
Minimum temperature yesterday: 59 °F (at 6:00 AM)
Average temperature yesterday: 71 °F

Past Weeks' High & Low Weather Summary

 TemperatureHumidityPressure
High84 °F (Jan 31, 3:00 PM)100% (Jan 22, 7:00 AM)30.24 "Hg (Jan 22, 7:00 AM)
Low59 °F (Jan 19, 7:00 AM)23% (Jan 18, 2:00 PM)28.70 "Hg (Jan 31, 6:00 PM)
Average72 °F53%30.09 "Hg
* Reported Jan 18 9:00 AM — Feb 2 3:00 AM, Nairobi, Weather by CustomWeather, © 2014

Note: Actual official high and low records may vary slightly from our data, if they occured in-between our weather recording intervals... More about our weather records

Advertising

Nairobi weather history for previous 24 hours

 ConditionsComfort  
Time TempWeatherWind HumidityBarometerVisibility
3:00 AM
Feb 2
64 °FPassing clouds.8 mph78%30.12 "HgN/A
2:00 AM64 °FPassing clouds.6 mph83%30.09 "HgN/A
1:00 AM66 °FClear.6 mph68%30.12 "HgN/A
12:00 AM68 °FClear.8 mph64%30.12 "HgN/A
11:00 PM
Feb 1
68 °FClear.6 mph64%30.12 "HgN/A
10:00 PM70 °FClear.8 mph64%30.12 "HgN/A
9:00 PM72 °FPassing clouds.12 mph61%30.09 "HgN/A
7:00 PM77 °FPassing clouds.15 mph42%30.04 "HgN/A
6:00 PM79 °FPassing clouds.20 mph34%30.04 "HgN/A
4:00 PM84 °FPassing clouds.21 mph23%30.01 "HgN/A
3:00 PM84 °FPassing clouds.9 mph23%30.07 "HgN/A
2:00 PM82 °FPassing clouds.14 mph28%30.07 "HgN/A
1:00 PM81 °FPassing clouds.8 mph34%30.09 "HgN/A
11:00 AMN/ASunny.12 mphN/AN/AN/A
10:00 AM73 °FSunny.6 mph50%30.18 "HgN/A
8:00 AM63 °FSunny.No wind73%30.15 "HgN/A
7:00 AM59 °FSunny.6 mph77%30.15 "HgN/A
6:00 AM59 °FClear.No wind82%30.15 "HgN/A
5:00 AM61 °FClear.No wind77%30.12 "HgN/A
Weather by CustomWeather, © 2014

See weather overviewHow to use our weather pages